• In Uzbekistan
  • List of Countries
  • For 7 days
  • Water Temperature
  • Satellite Maps
  • Weather Map
  • Weather Widgets
  • user-avatar
    Login

    Hourly Weather Stirling

    Today, 18 October, Wednesday

    Time Temperature Precipitation Wind Pressure Humidity
    00:00 +9°C° 0 mm 3 mps 760 mmHg 90%
    01:00 +9°C° 0 mm 3 mps 760 mmHg 90%
    02:00 +9°C° 0 mm 3 mps 760 mmHg 90%
    03:00 +9°C° 0 mm 3 mps 760 mmHg 90%
    04:00 +9°C° 0 mm 3 mps 760 mmHg 90%
    05:00 +9°C° 0 mm 3 mps 759 mmHg 90%
    06:00 +9°C° 0 mm 3 mps 759 mmHg 91%
    07:00 +9°C° 0 mm 3 mps 759 mmHg 90%
    08:00 +9°C° 0 mm 3 mps 759 mmHg 90%
    09:00 +9°C° 0 mm 3 mps 759 mmHg 90%
    10:00 +10°C° 0 mm 3 mps 759 mmHg 88%
    11:00 +10°C° 0 mm 4 mps 759 mmHg 87%
    12:00 +11°C° 0 mm 4 mps 759 mmHg 85%
    13:00 +11°C° 0 mm 4 mps 758 mmHg 85%
    14:00 +11°C° 0 mm 4 mps 758 mmHg 85%
    15:00 +11°C° 0 mm 4 mps 757 mmHg 85%
    16:00 +10°C° 0 mm 4 mps 757 mmHg 87%
    17:00 +10°C° 0 mm 4 mps 757 mmHg 89%
    18:00 +8°C° 0 mm 4 mps 757 mmHg 90%
    19:00 +8°C° 0 mm 4 mps 756 mmHg 91%
    20:00 +8°C° 0 mm 4 mps 756 mmHg 92%
    21:00 +8°C° 0 mm 4 mps 756 mmHg 93%
    22:00 +8°C° 0.1 mm 4 mps 755 mmHg 93%
    23:00 +8°C° 0.1 mm 4 mps 755 mmHg 93%

    Tomorrow, 19 October, Thursday

    Time Temperature Precipitation Wind Pressure Humidity
    00:00 +10°C° 0.1 mm 4 mps 754 mmHg 93%
    01:00 +10°C° 0.2 mm 3 mps 754 mmHg 94%
    02:00 +10°C° 0.2 mm 3 mps 753 mmHg 94%
    03:00 +10°C° 0.2 mm 3 mps 753 mmHg 95%
    04:00 +10°C° 0.3 mm 3 mps 752 mmHg 95%
    05:00 +11°C° 0.3 mm 3 mps 752 mmHg 95%
    06:00 +11°C° 0.3 mm 3 mps 752 mmHg 96%
    07:00 +11°C° 0 mm 3 mps 752 mmHg 95%
    08:00 +11°C° 0 mm 3 mps 751 mmHg 94%
    09:00 +12°C° 0 mm 3 mps 751 mmHg 93%
    10:00 +12°C° 0 mm 3 mps 751 mmHg 91%
    11:00 +13°C° 0 mm 3 mps 751 mmHg 89%
    12:00 +14°C° 0 mm 3 mps 751 mmHg 87%
    13:00 +14°C° 0.1 mm 3 mps 751 mmHg 88%
    14:00 +14°C° 0.1 mm 3 mps 750 mmHg 88%
    15:00 +14°C° 0.1 mm 3 mps 750 mmHg 89%
    16:00 +13°C° 0.1 mm 3 mps 750 mmHg 91%
    17:00 +13°C° 0.1 mm 3 mps 750 mmHg 93%
    18:00 +12°C° 0.1 mm 3 mps 749 mmHg 95%
    19:00 +13°C° 0.3 mm 2 mps 749 mmHg 96%
    20:00 +13°C° 0.3 mm 2 mps 749 mmHg 96%
    21:00 +13°C° 0.3 mm 2 mps 749 mmHg 97%
    22:00 +13°C° 0.1 mm 2 mps 749 mmHg 97%
    23:00 +13°C° 0.1 mm 1 mps 749 mmHg 97%

    Day after tomorrow, 20 October, Friday

    Time Temperature Precipitation Wind Pressure Humidity
    00:00 +13°C° 0.1 mm 1 mps 749 mmHg 97%
    01:00 +13°C° 0 mm 1 mps 749 mmHg 97%
    02:00 +13°C° 0 mm 1 mps 749 mmHg 97%
    03:00 +12°C° 0 mm 1 mps 749 mmHg 97%
    04:00 +12°C° 0.1 mm 1 mps 749 mmHg 97%
    05:00 +12°C° 0.1 mm 1 mps 749 mmHg 97%
    06:00 +12°C° 0.1 mm 1 mps 749 mmHg 97%
    07:00 +13°C° 0.1 mm 1 mps 750 mmHg 96%
    08:00 +13°C° 0.1 mm 1 mps 750 mmHg 95%
    09:00 +13°C° 0.1 mm 2 mps 750 mmHg 94%
    10:00 +14°C° 0 mm 2 mps 750 mmHg 92%
    11:00 +14°C° 0 mm 2 mps 750 mmHg 89%
    12:00 +15°C° 0 mm 2 mps 750 mmHg 86%
    13:00 +15°C° 0 mm 2 mps 750 mmHg 86%
    14:00 +15°C° 0 mm 2 mps 750 mmHg 86%
    15:00 +15°C° 0 mm 2 mps 749 mmHg 86%
    16:00 +15°C° 0.1 mm 2 mps 749 mmHg 88%
    17:00 +13°C° 0.1 mm 3 mps 749 mmHg 91%
    18:00 +13°C° 0.1 mm 3 mps 749 mmHg 94%
    19:00 +13°C° 0.1 mm 3 mps 748 mmHg 93%
    20:00 +13°C° 0.1 mm 3 mps 748 mmHg 93%
    21:00 +13°C° 0.1 mm 4 mps 747 mmHg 93%
    22:00 +13°C° 0.9 mm 4 mps 746 mmHg 94%
    23:00 +13°C° 0.9 mm 4 mps 746 mmHg 94%

    21 October, Saturday

    Time Temperature Precipitation Wind Pressure Humidity
    00:00 +12°C° 0.9 mm 4 mps 745 mmHg 95%
    01:00 +12°C° 1.7 mm 5 mps 744 mmHg 94%
    02:00 +12°C° 1.7 mm 5 mps 744 mmHg 94%
    03:00 +10°C° 1.7 mm 5 mps 743 mmHg 93%
    04:00 +11°C° 0.5 mm 4 mps 743 mmHg 93%
    05:00 +11°C° 0.5 mm 4 mps 742 mmHg 93%
    06:00 +11°C° 0.5 mm 4 mps 742 mmHg 93%
    07:00 +11°C° 0.3 mm 4 mps 741 mmHg 91%
    08:00 +10°C° 0.3 mm 5 mps 741 mmHg 89%
    09:00 +10°C° 0.3 mm 5 mps 741 mmHg 87%
    10:00 +10°C° 0.5 mm 6 mps 740 mmHg 86%
    11:00 +10°C° 0.5 mm 6 mps 739 mmHg 86%
    12:00 +10°C° 0.5 mm 6 mps 739 mmHg 86%
    13:00 +10°C° 0.2 mm 6 mps 738 mmHg 86%
    14:00 +10°C° 0.2 mm 6 mps 737 mmHg 87%
    15:00 +12°C° 0.2 mm 5 mps 736 mmHg 87%
    16:00 +10°C° 0.1 mm 5 mps 736 mmHg 88%
    17:00 +10°C° 0.1 mm 5 mps 736 mmHg 89%
    18:00 +10°C° 0.1 mm 5 mps 736 mmHg 90%
    19:00 +9°C° 0.4 mm 5 mps 737 mmHg 90%
    20:00 +9°C° 0.4 mm 6 mps 737 mmHg 91%
    21:00 +9°C° 0.4 mm 6 mps 738 mmHg 91%
    22:00 +9°C° 1.1 mm 7 mps 738 mmHg 90%
    23:00 +9°C° 1.1 mm 8 mps 739 mmHg 89%

    22 October, Sunday

    Time Temperature Precipitation Wind Pressure Humidity
    00:00 +10°C° 1.1 mm 9 mps 739 mmHg 88%
    01:00 +10°C° 0.8 mm 8 mps 740 mmHg 87%
    02:00 +10°C° 0.8 mm 8 mps 740 mmHg 86%
    03:00 +9°C° 0.8 mm 8 mps 741 mmHg 86%
    04:00 +9°C° 0.1 mm 7 mps 741 mmHg 87%
    05:00 +9°C° 0.1 mm 6 mps 742 mmHg 88%
    06:00 +9°C° 0.1 mm 6 mps 743 mmHg 90%
    07:00 +9°C° 0.1 mm 6 mps 743 mmHg 88%
    08:00 +10°C° 0.1 mm 7 mps 744 mmHg 87%
    09:00 +10°C° 0.1 mm 7 mps 745 mmHg 86%
    10:00 +10°C° 0 mm 7 mps 746 mmHg 84%
    11:00 +10°C° 0 mm 8 mps 747 mmHg 82%
    12:00 +11°C° 0 mm 8 mps 748 mmHg 80%
    13:00 +11°C° 0.1 mm 8 mps 749 mmHg 81%
    14:00 +10°C° 0.1 mm 8 mps 750 mmHg 83%
    15:00 +10°C° 0.1 mm 8 mps 750 mmHg 84%
    16:00 +10°C° 0 mm 7 mps 751 mmHg 85%
    17:00 +10°C° 0 mm 7 mps 752 mmHg 85%
    18:00 +10°C° 0 mm 7 mps 753 mmHg 86%
    19:00 +9°C° 0 mm 6 mps 753 mmHg 86%
    20:00 +9°C° 0 mm 6 mps 754 mmHg 86%
    21:00 +9°C° 0 mm 5 mps 755 mmHg 86%
    22:00 +8°C° 0 mm 5 mps 755 mmHg 87%
    23:00 +8°C° 0 mm 4 mps 755 mmHg 88%

    23 October, Monday

    Time Temperature Precipitation Wind Pressure Humidity
    00:00 +8°C° 0 mm 4 mps 755 mmHg 88%
    01:00 +8°C° 0 mm 3 mps 755 mmHg 90%
    02:00 +8°C° 0 mm 3 mps 755 mmHg 92%
    03:00 +8°C° 0 mm 3 mps 755 mmHg 93%
    04:00 +9°C° 0.5 mm 3 mps 755 mmHg 94%
    05:00 +9°C° 0.5 mm 3 mps 754 mmHg 94%
    06:00 +10°C° 0.5 mm 3 mps 754 mmHg 94%
    07:00 +10°C° 0.6 mm 3 mps 754 mmHg 95%
    08:00 +11°C° 0.6 mm 3 mps 753 mmHg 95%
    09:00 +12°C° 0.6 mm 3 mps 753 mmHg 95%
    10:00 +13°C° 0.4 mm 4 mps 753 mmHg 94%
    11:00 +13°C° 0.4 mm 4 mps 753 mmHg 93%
    12:00 +14°C° 0.4 mm 5 mps 753 mmHg 92%
    13:00 +14°C° 0.3 mm 5 mps 753 mmHg 92%
    14:00 +15°C° 0.3 mm 6 mps 752 mmHg 92%
    15:00 +15°C° 0.3 mm 6 mps 752 mmHg 92%
    16:00 +15°C° 0.4 mm 6 mps 752 mmHg 92%
    17:00 +15°C° 0.4 mm 6 mps 753 mmHg 93%
    18:00 +15°C° 0.4 mm 6 mps 753 mmHg 93%
    19:00 +14°C° 0.2 mm 5 mps 753 mmHg 94%
    20:00 +14°C° 0.2 mm 5 mps 753 mmHg 94%
    21:00 +14°C° 0.2 mm 4 mps 754 mmHg 95%
    22:00 +14°C° 0.3 mm 4 mps 754 mmHg 96%
    23:00 +14°C° 0.3 mm 3 mps 754 mmHg 96%
    Show more